AirNav   Air Wisconsin Up To $57,000 Bonus
 
 1210 users online  

8B1 Hawthorne-Feather Airpark
Hillsboro, New Hampshire, USA

GOING TO HILLSBORO?


FAA INFORMATION EFFECTIVE 19 MAY 2022

Location

FAA Identifier: 8B1
Lat/Long: 43-03-40.6000N 071-54-19.3000W
43-03.676667N 071-54.321667W
43.0612778,-71.9053611
(estimated)
Elevation: 600 ft. / 183 m (estimated)
Variation: 16W (1985)
From city: 3 miles S of HILLSBORO, NH
Time zone: UTC -4 (UTC -5 during Standard Time)
Zip code: 03244

Airport Operations

Airport use: Open to the public
Activation date: 02/1966
Control tower: no
ARTCC: BOSTON CENTER
FSS: BANGOR FLIGHT SERVICE STATION
NOTAMs facility: BGR (NOTAM-D service available)
Attendance: UNATNDD
Wind indicator: yes
Segmented circle: no
Lights: OTS INDEFLY.
Beacon: white-green (lighted land airport)
OTS INDEFLY.

Airport Communications

CTAF/UNICOM: 122.8
WX ASOS at AFN (16 nm S): 135.875 (603-532-6195)
WX AWOS-3PT at EEN (19 nm SW): 119.025 (603-358-6424)
WX ASOS at CON (20 nm NE): 132.325 (603-224-6558)

Nearby radio navigation aids

VOR radial/distance  VOR name  Freq  Var
CONr252/17.3CONCORD VOR/DME112.9015W
MHTr311/26.2MANCHESTER VOR/DME114.4015W
GDMr026/31.6GARDNER VOR/DME110.6014W

 
NDB name  Hdg/Dist  Freq  Var  ID
CLAREMONT148/27.523316WCNH -.-. -. ....

Airport Services

Fuel available: 100LL
100LL:SELF SERV FUEL AVBL 24 HRS BY CREDIT CARD SYS.
Parking: tiedowns
Airframe service: NONE
Powerplant service: NONE
Bottled oxygen: NONE
Bulk oxygen: NONE

Runway Information

Runway 2/20

Dimensions: 3260 x 75 ft. / 994 x 23 m
Surface: asphalt, in poor condition
RWY SFC UNEVEN WITH LRG OPEN CRACKS.
Weight bearing capacity: 
Single wheel: 8.0
Runway edge lights: medium intensity
MIRL RWY 02/20 OTS INDEFLY.
Runway edge markings: MARKINGS FADED.
RUNWAY 2  RUNWAY 20
Latitude: 43-03.407730N43-03.944378N
Longitude: 071-54.312915W071-54.329765W
Elevation: 593.0 ft.599.0 ft.
Traffic pattern: leftright
Runway heading: 015 magnetic, 359 true195 magnetic, 179 true
Markings: none, in poor conditionnone
Obstructions: 53 ft. trees, 201 ft. from runway, 108 ft. left of centerline
50 FT GROVE OF TREES AT THR 65 FT LEFT, 30 FT TREE 130 FT FM THR 85 FT RIGHT.
58 ft. trees, 201 ft. from runway, 75 ft. right of centerline
RWY 20 HAS +60 TREES AT THR 90 FT RIGHT.

Airport Ownership and Management from official FAA records

Ownership: Privately-owned
Owner: JAMES T. RYMES
2 MAIN ST
ANTRIM, NH 03440
Phone 603-588-6868
Manager: ROGER SMITH
2 MAIN ST
ANTRIM, NH 03440
Phone 603-588-6868

Airport Operational Statistics

Aircraft based on the field: 16
Single engine airplanes: 15
Ultralights: 1
    
Aircraft operations: avg 72/week *
43% transient general aviation
43% local general aviation
15% military
* for 12-month period ending 31 December 2016

Additional Remarks

PRIOR TO USING ARPT CALL 603-588-6868 FOR ARPT CONDS.
WILDLIFE ON & INVOF ARPT.
FOR CD CTC BOSTON APCH AT 603-594-5551.

Instrument Procedures

There are no published instrument procedures at 8B1.

Some nearby airports with instrument procedures:

KAFN - Jaffrey/Silver Ranch Airport (16 nm S)
KEEN - Dillant/Hopkins Airport (19 nm SW)
KCON - Concord Municipal Airport (20 nm NE)
KMHT - Manchester Boston Regional Airport (22 nm E)
2B3 - Parlin Field Airport (23 nm NW)
 
Loc | Ops | Rwys | IFR | FBO | Links
Com | Nav | Svcs | Stats | Notes
Area around 8B1 (Hawthorne-Feather Airpark)
 
Road maps at: MapQuest Bing Google
 
Aerial photo
WARNING: Photo may not be current or correct
Aerial photo of 8B1 (Hawthorne-Feather Airpark)
Photo by David Jablonski
Photo taken 09-Apr-2006

Do you have a better or more recent aerial photo of Hawthorne-Feather Airpark that you would like to share? If so, please send us your photo.

 
Sectional chart

 
Airport distance calculator
Flying to Hawthorne-Feather Airpark? Find the distance to fly.

From to 8B1

Sunrise and sunset
Times for 21-May-2022
 Local
(UTC-4)
 Zulu
(UTC)
Morning civil twilight04:4608:46
Sunrise05:1909:19
Sunset20:0900:09
Evening civil twilight20:4200:42

Current date and time
Zulu (UTC)  21-May-2022 18:43:39
Local (UTC-4)  21-May-2022 14:43:39
 
METAR
KAFN 
16nm S 
211752Z AUTO 22008KT 10SM CLR 28/19 A3002 RMK AO2 SLP165 T02830189 10289 20167 58008
KEEN 
19nm SW 
211756Z AUTO 23005KT CLR 28/21 A2999 RMK AO2 SLP156 T02780206 10278 20183 56013 PWINO $
KCON 
20nm NE 
211751Z AUTO VRB04KT 10SM CLR 24/17 A2998 RMK AO2 SLP153 T02440172 10250 20133 58015
KMHT 
22nm E 
211753Z 23004KT 10SM FEW100 BKN220 27/18 A2998 RMK AO2 SLP162 T02670178 10272 20144 58009
KASH 
25nm SE 
211756Z 00000KT 10SM CLR 26/22 A2999 RMK AO2 SLP160 T02560217 10261 20150 58013
KFIT 
31nm S 
211752Z AUTO VRB05KT 10SM CLR 28/19 A2999 RMK AO2 SLP155 T02830189 10283 20167 58010 TSNO
KVSF 
32nm NW 
211654Z AUTO 14007KT 10SM CLR 26/19 A2998 RMK AO2 SLP151 T02560189 $
TAF
KCON 
20nm NE 
211740Z 2118/2218 23007KT P6SM SCT040 FM220800 18004KT 3SM BR BKN010 FM221200 18007KT P6SM SCT050
KMHT 
22nm E 
211740Z 2118/2218 23007KT P6SM SCT040 FM220800 18004KT 3SM BR BKN015 FM221200 18007KT P6SM SCT050
NOTAMs
Click for the latest NOTAMs
NOTAMs are issued by the DoD/FAA and will open in a separate window not controlled by AirNav.

 

 
 

FBO, Fuel Providers, and Aircraft Ground Support

  
 Business Name 
 
 Contact 
 
 Services / Description 
 
Fuel Prices
 
Comments
  
Rymes Oil 603-588-6868
no information available

If you are affiliated with Rymes Oil and would like to show here your services, contact info, web link, logo, and more, click here
100LL
SS $4.51 
 Updated 17-Feb-2022
 
   2 read write
SS=Self service
Update Fuel Prices
 

Would you like to see your business listed on this page?

 If your business provides an interesting product or service to pilots, flight crews, aircraft, or users of the Hawthorne-Feather Airpark, you should consider listing it here.  To start the listing process, click on the button below
 
Add a business
 

Other Pages about Hawthorne-Feather Airpark

Update a link
 
Copyright © AirNav, LLC. All rights reserved. Privacy Policy  Contact